{"data":{"norad_id":68395,"intl_designator":"2026-063R","name":"STARLINK-37172","alt_names":[],"object_type":"PAYLOAD","status":"ACTIVE","operator":null,"country":"US","launch_date":"2026-03-26","launch_site_code":"AFWTR","launch_vehicle":null,"mission":null,"orbit_class":"UNKNOWN","rcs_meters":null,"size_class":null,"mass_kg":null,"dimensions":null,"purposes":["comms"],"wikipedia_slug":null,"has_3d_model":false,"image_url":null,"decayed_at":null,"tle_current":{"epoch":"2026-09-19T09:06:18.108864Z","epoch_age_seconds":144889,"freshness":"FRESH","line1":"1 68395U 26063R   26262.37937626  .00020938  00000+0  64893-3 0  9993","line2":"2 68395  97.2852  43.2102 0000797 328.8725  31.2470 15.33453131 27573","mean_motion":15.33453131,"eccentricity":7.97e-5,"inclination_deg":97.2852,"raan_deg":43.2102,"arg_perigee_deg":328.8725,"mean_anomaly_deg":31.247,"bstar":0.00064893,"rev_number":2757,"period_min":93.905706727466,"perigee_km":464.97354306787,"apogee_km":466.06442183147,"semimajor_km":6843.6559824497,"source":"CELESTRAK","updated_at":"2026-09-20T09:00:43.896998Z"}}}